FW6650 Weather Reports


Display with metric or nautical units.
time (UTC)temp
F
wind
direction
speed
MPH
gust
MPH
rain 1hr
in
rain 24hr
in
rain mn
in
humidity
%
barometer
mb
20260508205025 66 216 3.0 8.0 0.00 0.00 0.00 55 1016.3
20260508204538 66 245 3.0 8.0 0.00 0.00 0.00 54 1016.4
20260508204028 66 257 3.0 8.0 0.00 0.00 0.00 54 1016.4
20260508203524 66 266 3.0 7.0 0.00 0.00 0.00 54 1016.5
20260508203037 66 0 1.0 5.0 0.00 0.00 0.00 54 1016.5
20260508202526 66 33 1.0 6.0 0.00 0.00 0.00 56 1016.5
20260508202025 66 32 3.0 6.0 0.00 0.00 0.00 56 1016.3
20260508201540 66 22 3.0 5.0 0.00 0.00 0.00 55 1016.1
20260508201029 67 200 0.0 6.0 0.00 0.00 0.00 53 1015.9
20260508200525 67 200 2.0 6.0 0.00 0.00 0.00 52 1015.8
20260508200046 66 189 2.0 5.0 0.00 0.00 0.00 54 1015.8
20260508195529 66 136 1.0 7.0 0.00 0.00 0.00 56 1015.7
20260508195029 66 135 2.0 7.0 0.00 0.00 0.00 55 1015.8
20260508194533 66 80 3.0 4.0 0.00 0.00 0.00 55 1015.8
20260508194025 66 31 1.0 5.0 0.00 0.00 0.00 55 1015.9
20260508193525 66 30 2.0 5.0 0.00 0.00 0.00 56 1015.9
20260508193040 66 55 2.0 4.0 0.00 0.00 0.00 57 1015.9
20260508192525 66 61 1.0 3.0 0.00 0.00 0.00 56 1015.6
20260508192030 66 63 0.0 4.0 0.00 0.00 0.00 56 1015.5
20260508191535 66 0 0.0 4.0 0.00 0.00 0.00 56 1015.5
20260508191028 66 63 2.0 4.0 0.00 0.00 0.00 57 1015.4
20260508190528 66 5 1.0 4.0 0.00 0.00 0.00 56 1015.6
20260508190040 66 5 0.0 6.0 0.00 0.00 0.00 57 1015.6
20260508185529 66 355 2.0 8.0 0.00 0.00 0.00 57 1015.5
20260508185027 66 11 3.0 8.0 0.00 0.00 0.00 58 1015.4
20260508184540 66 11 4.0 8.0 0.00 0.00 0.00 59 1015.3
20260508184027 66 355 2.0 8.0 0.00 0.00 0.00 59 1015.2
20260508183527 65 0 1.0 8.0 0.00 0.00 0.00 60 1015.1
20260508183044 65 129 4.0 8.0 0.00 0.00 0.00 62 1015.0
20260508182528 65 5 0.0 11.0 0.00 0.00 0.00 62 1015.3
20260508182031 65 9 4.0 11.0 0.00 0.00 0.00 62 1015.3
20260508181547 65 347 7.0 11.0 0.00 0.00 0.00 62 1015.2
20260508181030 66 336 4.0 8.0 0.00 0.00 0.00 62 1014.9
20260508180528 66 322 3.0 8.0 0.00 0.00 0.00 62 1014.4
20260508180044 66 336 2.0 8.0 0.00 0.00 0.00 62 1014.3
20260508175530 66 360 1.0 6.0 0.00 0.00 0.00 62 1014.4
20260508175028 66 319 2.0 7.0 0.00 0.00 0.00 61 1014.4
20260508174538 67 24 3.0 7.0 0.00 0.00 0.00 59 1014.3
20260508174027 67 355 4.0 5.0 0.00 0.00 0.00 57 1013.9
20260508173528 67 71 1.0 4.0 0.00 0.00 0.00 56 1013.8
20260508173039 67 0 0.0 4.0 0.00 0.00 0.00 55 1013.7
20260508172528 68 84 1.0 4.0 0.00 0.00 0.00 54 1013.6
20260508172028 68 86 1.0 4.0 0.00 0.00 0.00 55 1013.7
20260508171537 68 46 1.0 6.0 0.00 0.00 0.00 55 1013.9
20260508171029 68 36 2.0 6.0 0.00 0.00 0.00 54 1014.0
20260508170527 68 10 3.0 5.0 0.00 0.00 0.00 53 1014.2
20260508170036 69 22 2.0 5.0 0.00 0.00 0.00 51 1014.1
20260508165527 69 30 2.0 6.0 0.00 0.00 0.00 49 1013.9
20260508165027 70 345 2.0 6.0 0.00 0.00 0.00 47 1013.9
20260508164535 70 265 2.0 10.0 0.00 0.00 0.00 44 1013.9
20260508164027 70 0 3.0 10.0 0.00 0.00 0.00 44 1013.8
20260508163527 71 217 4.0 9.0 0.00 0.00 0.00 43 1013.9
20260508163033 71 200 2.0 8.0 0.00 0.00 0.00 43 1013.7
20260508162527 71 171 3.0 8.0 0.00 0.00 0.00 43 1013.6
20260508162027 71 253 3.0 10.0 0.00 0.00 0.00 43 1013.7
20260508161541 71 264 4.0 10.0 0.00 0.00 0.00 43 1013.6
20260508161025 71 242 1.0 7.0 0.00 0.00 0.00 44 1013.6
20260508160524 71 263 3.0 8.0 0.00 0.00 0.00 45 1013.5
20260508160039 71 192 2.0 8.0 0.00 0.00 0.00 45 1013.6
20260508155528 71 272 3.0 11.0 0.00 0.00 0.00 45 1013.7
20260508155026 71 265 5.0 11.0 0.00 0.00 0.00 45 1013.7
20260508154536 71 246 2.0 8.0 0.00 0.00 0.00 44 1013.7
20260508154025 71 288 3.0 10.0 0.00 0.00 0.00 45 1013.6
20260508153527 71 289 5.0 10.0 0.00 0.00 0.00 46 1013.7
20260508153036 72 246 5.0 11.0 0.00 0.00 0.00 45 1013.7
20260508152525 72 261 5.0 11.0 0.00 0.00 0.00 45 1013.5
20260508152029 72 242 6.0 11.0 0.00 0.00 0.00 45 1013.4
20260508151543 72 254 6.0 15.0 0.00 0.00 0.00 45 1013.6
20260508151028 72 250 5.0 15.0 0.00 0.00 0.00 45 1013.6
20260508150523 72 224 5.0 14.0 0.00 0.00 0.00 45 1013.6
20260508150051 72 245 8.0 15.0 0.00 0.00 0.00 45 1013.6
20260508145525 73 233 5.0 15.0 0.00 0.00 0.00 45 1013.5
20260508145024 73 225 7.0 15.0 0.00 0.00 0.00 45 1013.4
20260508144543 73 248 7.0 16.0 0.00 0.00 0.00 44 1013.5
20260508144027 73 279 9.0 17.0 0.00 0.00 0.00 45 1013.3
20260508143526 73 221 8.0 17.0 0.00 0.00 0.00 46 1013.4
20260508143044 73 186 10.0 16.0 0.00 0.00 0.00 48 1013.3
20260508142525 74 244 7.0 15.0 0.00 0.00 0.00 47 1013.3
20260508142025 74 241 6.0 15.0 0.00 0.00 0.00 46 1013.4
20260508141536 73 163 9.0 15.0 0.00 0.00 0.00 46 1013.5
20260508141024 73 254 8.0 15.0 0.00 0.00 0.00 46 1013.6
20260508140525 73 250 6.0 14.0 0.00 0.00 0.00 47 1013.6
20260508140042 74 243 6.0 14.0 0.00 0.00 0.00 46 1013.7
20260508135525 74 245 7.0 14.0 0.00 0.00 0.00 45 1013.7
20260508135026 74 271 5.0 13.0 0.00 0.00 0.00 43 1013.8
20260508134532 74 248 5.0 15.0 0.00 0.00 0.00 43 1014.0
20260508134025 74 256 6.0 15.0 0.00 0.00 0.00 43 1014.2
20260508133525 74 229 8.0 15.0 0.00 0.00 0.00 43 1014.1
20260508133042 74 173 6.0 15.0 0.00 0.00 0.00 42 1014.1
20260508132524 74 218 7.0 16.0 0.00 0.00 0.00 43 1014.3
20260508132025 74 230 8.0 16.0 0.00 0.00 0.00 43 1014.3
20260508131534 73 213 9.0 16.0 0.00 0.00 0.00 44 1014.3
20260508131025 74 209 7.0 14.0 0.00 0.00 0.00 44 1014.4
20260508130527 73 248 8.0 14.0 0.00 0.00 0.00 43 1014.6
20260508130035 74 221 7.0 12.0 0.00 0.00 0.00 43 1014.7
20260508125527 73 263 8.0 13.0 0.00 0.00 0.00 43 1014.8
20260508125027 73 303 5.0 13.0 0.00 0.00 0.00 42 1014.8
20260508124535 74 278 3.0 11.0 0.00 0.00 0.00 40 1014.9
20260508124027 74 259 3.0 12.0 0.00 0.00 0.00 41 1015.0
20260508123527 73 223 3.0 14.0 0.00 0.00 0.00 41 1015.1
20260508123040 73 242 8.0 14.0 0.00 0.00 0.00 41 1015.1
20260508122530 73 194 5.0 11.0 0.00 0.00 0.00 40 1015.2
20260508122028 73 269 4.0 10.0 0.00 0.00 0.00 40 1015.4
20260508121539 73 211 4.0 10.0 0.00 0.00 0.00 40 1015.6
20260508121027 73 201 3.0 10.0 0.00 0.00 0.00 40 1015.6
20260508120527 71 235 4.0 17.0 0.00 0.00 0.00 43 1015.5
20260508120034 71 278 8.0 18.0 0.00 0.00 0.00 43 1015.5
20260508115528 71 207 9.0 18.0 0.00 0.00 0.00 44 1015.5
20260508115027 70 240 6.0 14.0 0.00 0.00 0.00 45 1015.6
20260508114537 70 236 6.0 16.0 0.00 0.00 0.00 44 1015.8
20260508114029 70 257 7.0 16.0 0.00 0.00 0.00 43 1015.9
20260508113527 70 239 5.0 11.0 0.00 0.00 0.00 44 1015.7
20260508113108 70 144 3.0 11.0 0.00 0.00 0.00 44 1015.1
20260508112527 70 197 5.0 11.0 0.00 0.00 0.00 44 1015.6
20260508112027 70 194 5.0 11.0 0.00 0.00 0.00 45 1016.0
20260508111541 70 239 3.0 12.0 0.00 0.00 0.00 45 1016.0
20260508111027 70 201 5.0 12.0 0.00 0.00 0.00 44 1016.1
20260508110527 70 265 5.0 10.0 0.00 0.00 0.00 46 1016.3
20260508110035 70 260 4.0 8.0 0.00 0.00 0.00 46 1016.2
20260508105527 69 239 4.0 11.0 0.00 0.00 0.00 46 1016.2
20260508105028 69 254 4.0 14.0 0.00 0.00 0.00 47 1016.5
20260508104542 69 213 6.0 14.0 0.00 0.00 0.00 47 1016.6
20260508104028 70 222 8.0 14.0 0.00 0.00 0.00 47 1016.6
20260508103527 70 220 4.0 12.0 0.00 0.00 0.00 47 1016.8
20260508103037 70 219 5.0 12.0 0.00 0.00 0.00 46 1016.7
20260508102526 70 186 5.0 12.0 0.00 0.00 0.00 47 1016.8
20260508102027 70 196 4.0 11.0 0.00 0.00 0.00 46 1016.7
20260508101540 70 207 2.0 11.0 0.00 0.00 0.00 48 1016.7
20260508101027 69 220 5.0 10.0 0.00 0.00 0.00 48 1016.6
20260508100525 69 234 3.0 10.0 0.00 0.00 0.00 49 1016.8
20260508100041 69 223 3.0 10.0 0.00 0.00 0.00 49 1017.0
20260508095527 68 249 6.0 13.0 0.00 0.00 0.00 49 1017.1
20260508095026 68 203 5.0 13.0 0.00 0.00 0.00 51 1017.2
20260508094535 68 232 5.0 13.0 0.00 0.00 0.00 51 1017.4
20260508094027 69 249 4.0 15.0 0.00 0.00 0.00 51 1017.5
20260508093527 68 249 6.0 15.0 0.00 0.00 0.00 51 1017.5
20260508093036 68 244 8.0 15.0 0.00 0.00 0.00 50 1017.4
20260508092528 68 263 7.0 14.0 0.00 0.00 0.00 50 1017.5
20260508092026 69 252 5.0 13.0 0.00 0.00 0.00 50 1017.6
20260508091536 69 220 6.0 12.0 0.00 0.00 0.00 49 1017.5
20260508091026 68 245 5.0 11.0 0.00 0.00 0.00 50 1017.5
20260508090527 68 217 6.0 14.0 0.00 0.00 0.00 50 1017.7
20260508090044 68 233 5.0 14.0 0.00 0.00 0.00 50 1017.7
20260508085526 68 242 6.0 13.0 0.00 0.00 0.00 49 1017.6
20260508085027 68 265 4.0 15.0 0.00 0.00 0.00 48 1017.6
20260508084535 68 227 6.0 15.0 0.00 0.00 0.00 47 1017.6
20260508084027 68 214 6.0 14.0 0.00 0.00 0.00 47 1017.7
20260508083527 68 244 7.0 14.0 0.00 0.00 0.00 47 1017.7
20260508083041 68 230 5.0 13.0 0.00 0.00 0.00 47 1017.6
20260508082528 68 213 4.0 13.0 0.00 0.00 0.00 46 1017.6
20260508082027 68 177 7.0 12.0 0.00 0.00 0.00 45 1017.6
20260508081541 68 232 5.0 12.0 0.00 0.00 0.00 45 1017.6
20260508081026 68 210 5.0 19.0 0.00 0.00 0.00 45 1017.7
20260508080527 68 260 5.0 19.0 0.00 0.00 0.00 44 1017.8
20260508080034 69 236 7.0 15.0 0.00 0.00 0.00 43 1017.9
20260508075529 69 215 8.0 16.0 0.00 0.00 0.00 43 1017.8
20260508075026 69 248 10.0 16.0 0.00 0.00 0.00 42 1017.8
20260508074536 68 262 5.0 11.0 0.00 0.00 0.00 44 1017.7
20260508074027 68 232 5.0 12.0 0.00 0.00 0.00 44 1017.8
20260508073526 67 241 6.0 12.0 0.00 0.00 0.00 44 1017.7
20260508073033 67 202 5.0 14.0 0.00 0.00 0.00 44 1017.8
20260508072532 66 199 8.0 14.0 0.00 0.00 0.00 43 1017.9
20260508072027 66 225 7.0 13.0 0.00 0.00 0.00 43 1018.0
20260508071537 66 199 6.0 12.0 0.00 0.00 0.00 43 1018.1
20260508071026 66 200 5.0 12.0 0.00 0.00 0.00 43 1018.1
20260508070526 66 234 4.0 12.0 0.00 0.00 0.00 43 1018.4
20260508070039 66 245 5.0 12.0 0.00 0.00 0.00 42 1018.4
20260508065526 66 234 4.0 12.0 0.00 0.00 0.00 41 1018.4
20260508065027 66 251 3.0 10.0 0.00 0.00 0.00 40 1018.3
20260508064600 66 246 6.0 10.0 0.00 0.00 0.00 41 1018.3
20260508064027 66 244 4.0 11.0 0.00 0.00 0.00 40 1018.3
20260508063527 66 213 3.0 11.0 0.00 0.00 0.00 40 1018.1
20260508063036 66 260 6.0 11.0 0.00 0.00 0.00 39 1018.1
20260508062527 66 227 5.0 9.0 0.00 0.00 0.00 39 1018.1
20260508062026 66 264 5.0 9.0 0.00 0.00 0.00 39 1018.0
20260508061547 66 253 4.0 9.0 0.00 0.00 0.00 40 1018.0
20260508061026 66 259 4.0 9.0 0.00 0.00 0.00 42 1017.8
20260508060527 66 238 3.0 7.0 0.00 0.00 0.00 47 1017.8
20260508060042 66 196 2.0 4.0 0.00 0.00 0.00 50 1017.6
20260508055527 65 0 0.0 2.0 0.00 0.00 0.00 51 1017.3
20260508055027 65 0 0.0 2.0 0.00 0.00 0.00 52 1017.1
20260508054603 65 0 0.0 3.0 0.00 0.00 0.00 52 1017.0
20260508054026 65 0 0.0 3.0 0.00 0.00 0.00 51 1016.8
20260508053526 65 120 0.0 2.0 0.00 0.00 0.00 52 1016.8
20260508053033 65 120 0.0 2.0 0.00 0.00 0.00 50 1016.7
20260508052526 65 0 0.0 2.0 0.00 0.00 0.00 52 1016.5
20260508052026 65 120 0.0 2.0 0.00 0.00 0.00 51 1016.5
20260508051535 65 0 0.0 0.0 0.00 0.00 0.00 51 1016.3
20260508051026 65 0 0.0 1.0 0.00 0.00 0.00 52 1016.3
20260508050527 64 0 0.0 3.0 0.00 0.00 0.00 52 1016.3
20260508050037 64 120 0.0 3.0 0.00 0.00 0.00 51 1016.2
20260508045526 64 120 2.0 3.0 0.00 0.00 0.00 52 1016.4
20260508045026 63 119 1.0 4.0 0.00 0.00 0.00 53 1016.5
20260508044535 63 119 0.0 4.0 0.00 0.00 0.00 54 1016.5
20260508044027 63 119 2.0 4.0 0.00 0.00 0.00 53 1016.3
20260508043526 63 102 1.0 3.0 0.00 0.00 0.00 54 1016.2
20260508043044 63 101 0.0 3.0 0.00 0.00 0.00 54 1016.1
20260508042529 63 0 0.0 4.0 0.00 0.00 0.00 55 1015.9
20260508042026 64 0 1.0 4.0 0.00 0.00 0.00 54 1015.9
20260508041537 63 81 1.0 3.0 0.00 0.00 0.00 54 1015.7
20260508041027 63 0 0.0 2.0 0.00 0.00 0.00 55 1015.7
20260508040528 63 79 0.0 4.0 0.00 0.00 0.00 54 1015.8
20260508040042 63 80 0.0 4.0 0.00 0.00 0.00 55 1015.4
20260508035530 63 78 1.0 3.0 0.00 0.00 0.00 55 1015.4
20260508035026 63 0 1.0 2.0 0.00 0.00 0.00 55 1015.4
20260508034536 63 79 0.0 2.0 0.00 0.00 0.00 55 1015.4
20260508034026 63 0 0.0 3.0 0.00 0.00 0.00 55 1015.4
20260508033526 63 80 1.0 3.0 0.00 0.00 0.00 54 1015.3
20260508033035 63 79 0.0 2.0 0.00 0.00 0.00 56 1015.4
20260508032527 63 0 0.0 3.0 0.00 0.00 0.00 55 1015.5
20260508032025 63 0 0.0 4.0 0.00 0.00 0.00 56 1015.4
20260508031537 63 78 2.0 4.0 0.00 0.00 0.00 55 1015.5
20260508031026 63 38 2.0 3.0 0.00 0.00 0.00 58 1015.2
20260508030527 63 34 1.0 2.0 0.00 0.00 0.00 58 1015.3
20260508030035 63 0 0.0 2.0 0.00 0.00 0.00 58 1015.4
20260508025527 63 36 0.0 3.0 0.00 0.00 0.00 58 1015.5
20260508025029 63 0 0.0 3.0 0.00 0.00 0.00 57 1015.3
20260508024535 63 35 0.0 3.0 0.00 0.00 0.00 58 1015.3
20260508024026 63 0 0.0 0.0 0.00 0.00 0.00 59 1015.5
20260508023527 63 0 0.0 0.0 0.00 0.00 0.00 61 1015.6
20260508023035 63 0 0.0 2.0 0.00 0.00 0.00 60 1015.6
20260508022526 63 0 0.0 3.0 0.00 0.00 0.00 60 1015.5
20260508022026 63 332 1.0 3.0 0.00 0.00 0.00 61 1015.6
20260508021542 63 330 0.0 2.0 0.00 0.00 0.00 62 1015.6
20260508021030 63 0 0.0 1.0 0.00 0.00 0.00 62 1015.5
20260508020526 63 0 0.0 1.0 0.00 0.00 0.00 62 1015.5
20260508020037 63 0 0.0 3.0 0.00 0.00 0.00 62 1015.5
20260508015527 63 329 0.0 3.0 0.00 0.00 0.00 62 1015.5
20260508015028 63 329 1.0 3.0 0.00 0.00 0.00 62 1015.5
20260508014533 63 0 0.0 2.0 0.00 0.00 0.00 62 1015.6
20260508014026 63 0 0.0 2.0 0.00 0.00 0.00 62 1015.7
20260508013526 63 325 1.0 2.0 0.00 0.00 0.00 62 1015.6
20260508013033 63 325 0.0 2.0 0.00 0.00 0.00 62 1015.7
20260508012526 63 0 0.0 1.0 0.00 0.00 0.00 62 1015.8
20260508012026 63 0 0.0 1.0 0.00 0.00 0.00 62 1015.8
20260508011543 63 0 0.0 0.0 0.00 0.00 0.00 62 1016.0
20260508011026 63 0 0.0 1.0 0.00 0.00 0.00 62 1016.0
20260508010526 63 0 0.0 1.0 0.00 0.00 0.00 61 1016.0
20260508010041 63 0 0.0 0.0 0.00 0.00 0.00 62 1016.1
20260508005526 63 0 0.0 0.0 0.00 0.00 0.00 62 1016.1
20260508005026 63 0 0.0 2.0 0.00 0.00 0.00 62 1016.1
20260508004540 63 0 0.0 2.0 0.00 0.00 0.00 62 1016.1
20260508004026 63 325 0.0 3.0 0.00 0.00 0.00 62 1016.1
20260508003526 63 0 0.0 3.0 0.00 0.00 0.00 62 1016.1
20260508003042 63 325 0.0 3.0 0.00 0.00 0.00 62 1016.1
20260508002526 63 325 1.0 3.0 0.00 0.00 0.00 62 1016.2
20260508002026 63 0 0.0 2.0 0.00 0.00 0.00 61 1016.1
20260508001537 63 322 0.0 3.0 0.00 0.00 0.00 61 1016.2
20260508001026 63 322 1.0 3.0 0.00 0.00 0.00 61 1016.1
20260508000530 63 0 0.0 3.0 0.00 0.00 0.00 60 1016.2
20260508000053 64 0 0.0 3.0 0.00 0.00 0.00 59 1016.3
20260507235526 64 321 1.0 3.0 0.00 0.00 0.00 59 1016.3
20260507235026 64 320 0.0 2.0 0.00 0.00 0.00 58 1016.3
20260507234543 64 0 0.0 0.0 0.00 0.00 0.00 58 1016.5
20260507234027 64 0 0.0 1.0 0.00 0.00 0.00 57 1016.7
20260507233529 64 0 0.0 2.0 0.00 0.00 0.00 56 1016.8
20260507233037 64 0 0.0 2.0 0.00 0.00 0.00 56 1016.7
20260507232524 64 0 0.0 3.0 0.00 0.00 0.00 54 1016.7
20260507232025 64 0 1.0 3.0 0.00 0.00 0.00 54 1016.8
20260507231537 64 0 0.0 0.0 0.00 0.00 0.00 52 1016.7
20260507231026 64 0 0.0 0.0 0.00 0.00 0.00 51 1016.6
20260507230528 64 0 0.0 0.0 0.00 0.00 0.00 51 1016.6
20260507230038 64 0 0.0 0.0 0.00 0.00 0.00 51 1016.8
20260507225526 64 0 0.0 0.0 0.00 0.00 0.00 51 1016.8
20260507225026 64 0 0.0 2.0 0.00 0.00 0.00 52 1016.9
20260507224535 64 0 0.0 2.0 0.00 0.00 0.00 51 1017.0
20260507224030 64 319 0.0 3.0 0.00 0.00 0.00 52 1016.9
20260507223529 64 0 0.0 3.0 0.00 0.00 0.00 52 1017.0
20260507223040 64 319 0.0 3.0 0.00 0.00 0.00 52 1017.0
20260507222526 64 319 1.0 3.0 0.00 0.00 0.00 52 1017.0
20260507222025 64 313 1.0 4.0 0.00 0.00 0.00 52 1017.0
20260507221534 65 313 2.0 4.0 0.00 0.00 0.00 51 1017.1
20260507221025 65 0 0.0 2.0 0.00 0.00 0.00 52 1017.1
20260507220527 65 0 0.0 3.0 0.00 0.00 0.00 52 1017.2
20260507220033 65 312 0.0 3.0 0.00 0.00 0.00 52 1017.2
20260507215526 65 311 0.0 2.0 0.00 0.00 0.00 51 1017.3
20260507215025 65 0 0.0 2.0 0.00 0.00 0.00 51 1017.4
20260507214539 65 0 0.0 3.0 0.00 0.00 0.00 51 1017.5
20260507214026 65 0 1.0 3.0 0.00 0.00 0.00 51 1017.5
20260507213529 65 311 0.0 2.0 0.00 0.00 0.00 51 1017.4
20260507213040 65 0 1.0 2.0 0.00 0.00 0.00 49 1017.4
20260507212526 65 0 0.0 1.0 0.00 0.00 0.00 51 1017.6
20260507212028 65 0 0.0 1.0 0.00 0.00 0.00 51 1017.7
20260507211547 65 0 0.0 1.0 0.00 0.00 0.00 51 1017.6
20260507211025 65 0 0.0 1.0 0.00 0.00 0.00 50 1017.5
20260507210526 65 0 0.0 1.0 0.00 0.00 0.00 49 1017.6
20260507210038 65 0 0.0 0.0 0.00 0.00 0.00 49 1017.5
20260507205523 65 0 0.0 0.0 0.00 0.00 0.00 49 1017.5